Satellite: SRMSAT Catalog number: 37841 Epoch time: 12082.47077233 Element set: 114 Inclination: 019.9713 deg RA of node: 166.7487 deg Eccentricity: 0.0012138 Arg of perigee: 315.4575 deg Mean anomaly: 044.4880 deg Mean motion: 14.10123160 rev/day Decay rate: 2.64e-06 rev/day^2 Epoch rev: 2293 Checksum: 273
Satellite: RAX-2 Catalog number: 37853 Epoch time: 12082.90056841 Element set: 129 Inclination: 101.7160 deg RA of node: 083.8479 deg Eccentricity: 0.0249855 Arg of perigee: 236.7023 deg Mean anomaly: 121.0021 deg Mean motion: 14.79226587 rev/day Decay rate: 2.807e-05 rev/day^2 Epoch rev: 2163 Checksum: 293
Satellite: AUBIESAT Catalog number: 37854 Epoch time: 12082.87587537 Element set: 131 Inclination: 101.7183 deg RA of node: 083.9524 deg Eccentricity: 0.0251150 Arg of perigee: 236.1093 deg Mean anomaly: 121.5987 deg Mean motion: 14.79548207 rev/day Decay rate: 2.128e-05 rev/day^2 Epoch rev: 2162 Checksum: 297
Satellite: HRBE Catalog number: 37855 Epoch time: 12082.88215979 Element set: 130 Inclination: 101.7214 deg RA of node: 083.9438 deg Eccentricity: 0.0251158 Arg of perigee: 236.2332 deg Mean anomaly: 121.4713 deg Mean motion: 14.79438014 rev/day Decay rate: 2.086e-05 rev/day^2 Epoch rev: 2162 Checksum: 283
Satellite: RS-39 Catalog number: 38051 Epoch time: 12082.74655919 Element set: 175 Inclination: 051.6428 deg RA of node: 211.3027 deg Eccentricity: 0.0011246 Arg of perigee: 086.3144 deg Mean anomaly: 049.9205 deg Mean motion: 15.22851233 rev/day Decay rate: 6.494e-05 rev/day^2 Epoch rev: 879 Checksum: 300
Satellite: E-STAR Catalog number: 38079 Epoch time: 12082.60139100 Element set: 93 Inclination: 069.4913 deg RA of node: 152.6985 deg Eccentricity: 0.0772013 Arg of perigee: 356.6352 deg Mean anomaly: 002.9719 deg Mean motion: 14.08258324 rev/day Decay rate: 3.4898e-04 rev/day^2 Epoch rev: 536 Checksum: 309
Satellite: GOLIAT Catalog number: 38085 Epoch time: 12082.54192043 Element set: 91 Inclination: 069.4897 deg RA of node: 152.8734 deg Eccentricity: 0.0771617 Arg of perigee: 356.7172 deg Mean anomaly: 002.9021 deg Mean motion: 14.07697944 rev/day Decay rate: 3.1303e-04 rev/day^2 Epoch rev: 535 Checksum: 303
/EX
participants (1)
-
Ray Hoad